Location: TAAA CAC
(31.8680°N, 109.5150°W)
Time: 20:45:19
(UTC-07:00)

BlueWalker 3 - Pass Details

Date: 18 March 2026
Orbit: 449 x 457 km, 53.2° (Epoch: 20 April)

Event Time Altitude Azimuth Distance (km) Brightness Sun altitude
Exits shadow 04:20:40 20° 23° (NNE) 1,112 4.0 -26.7°
Maximum altitude 04:21:18 21° 38° (NE) 1,078 4.1 -26.6°
Drops below altitude 10° 04:24:04 10° 90° (E) 1,586 5.4 -26.0°
Sets 04:26:34 0° 106° (ESE) 2,454 6.3 -25.5°
